Volver al catálogo

FENGYUN 1C DEB *

ActivoSSO
NORAD 47101·DEBRIS·🇨🇳 China

Lanzado May 10, 1999 desde Taiyuan Satellite Launch Center

Loading…

Próximos Pases (próximas 24 horas)

TLE

ActualizadoSource: Space-Track

Época: Sep 14, 2026, 09:32 UTC

1 47101U 99025FBZ 26257.39735329  .00003802  00000-0  16363-2 0  9995
2 47101  98.8172 322.4091 0101711 347.4606  12.4043 14.22459651385753

Sigue FENGYUN 1C DEB * en tiempo real con AllMySat

Download on the App Store